Stations météo

réclame
Mon MeteoGroup
Sete, France (7641): Température de l'air & dewpoint: 13.02.2020 22:00:00 - 19.02.2020 22:00:00 (CET)Sete, France (7641): Vitesse du vent & gusts: 13.02.2020 22:00:00 - 19.02.2020 22:00:00 (CET)Sete, France (7641): Direction du vent: 13.02.2020 22:00:00 - 19.02.2020 22:00:00 (CET)Sete, France (7641): reduced air pressure: 13.02.2020 22:00:00 - 19.02.2020 22:00:00 (CET)Sete, France (7641): visibility: 13.02.2020 22:00:00 - 19.02.2020 22:00:00 (CET)Sete, France (7641): Quantités de précipitations: 13.02.2020 22:00:00 - 19.02.2020 22:00:00 (CET)
Date & Time tt [°C] td [°C] ff [km/h] ff [knt] fx [km/h] fx [knt] dd ppp [hPa] vv [km] rr [mm]
19.02.2020 22:00:00 10,9 4,8 15 8 29 15 WNW 1027,9 - 0,0
19.02.2020 21:00:00 10,6 5,4 9 5 43 23 WNW 1028,1 - 0,0
19.02.2020 20:00:00 11,1 4,8 20 11 33 18 NNW 1027,9 - 0,0
19.02.2020 19:00:00 11,5 4,7 9 5 42 23 NW 1027,8 20 0,0
19.02.2020 18:00:00 11,8 4,7 11 6 50 27 NW 1027,8 - 0,0
19.02.2020 17:00:00 12,3 4,8 16 9 48 26 NW 1027,7 - 0,0
19.02.2020 16:00:00 13,1 4,5 18 10 52 28 NNW 1028,0 20 0,0
19.02.2020 15:00:00 13,6 4,5 12 7 48 26 NW 1028,3 - 0,0
19.02.2020 14:00:00 13,3 4,2 15 8 51 27 NW 1029,2 - 0,0
19.02.2020 13:00:00 13,5 4,1 16 9 49 27 NW 1029,8 20 0,0
19.02.2020 12:00:00 12,2 4,2 19 10 40 22 NW 1030,9 - 0,0
19.02.2020 11:00:00 12,2 4,2 8 4 32 17 NW 1031,3 - 0,0
19.02.2020 10:00:00 11,7 3,5 14 8 41 22 WNW 1031,1 20 0,0
19.02.2020 09:00:00 10,2 3,5 13 7 33 18 NW 1031,0 - 0,0
19.02.2020 08:00:00 9,1 3,1 14 8 37 20 NW 1030,8 - 0,0
19.02.2020 07:00:00 8,8 2,8 13 7 29 16 NW 1030,0 20 0,0
19.02.2020 06:00:00 9,0 3,2 11 6 36 19 W 1029,5 - 0,0
19.02.2020 05:00:00 8,9 3,1 16 9 41 22 NW 1028,8 - 0,0
19.02.2020 04:00:00 8,8 3,0 12 6 43 23 WNW 1029,2 20 0,0
19.02.2020 03:00:00 9,1 2,9 13 7 40 22 NW 1029,9 - 0,0
19.02.2020 02:00:00 8,9 2,9 16 9 35 19 NW 1030,4 - 0,0
19.02.2020 01:00:00 8,8 2,6 12 6 27 15 NW 1030,8 - 0,0
19.02.2020 00:00:00 8,6 2,4 10 5 27 15 WNW 1031,0 - 0,0
18.02.2020 23:00:00 8,9 2,2 7 4 24 13 W 1031,6 - 0,0
18.02.2020 22:00:00 9,3 2,4 6 3 23 12 WNW 1031,3 - 0,0
18.02.2020 21:00:00 9,5 2,1 8 5 19 11 WNW 1031,1 - 0,0
18.02.2020 20:00:00 9,9 2,0 9 5 31 17 WSW 1030,9 - 0,0
18.02.2020 19:00:00 11,2 0,6 11 6 41 22 WNW 1030,1 20 0,0
18.02.2020 18:00:00 12,0 0,4 20 11 43 23 NW 1029,3 - 0,0
18.02.2020 17:00:00 12,6 0,7 21 12 45 24 NNW 1029,0 - 0,0
18.02.2020 16:00:00 13,6 0,9 14 8 42 23 NW 1029,0 20 0,0
18.02.2020 15:00:00 13,5 0,1 17 9 49 26 NNW 1029,6 - 0,0
18.02.2020 14:00:00 13,6 0,9 18 10 48 26 NNW 1030,2 - 0,0
18.02.2020 13:00:00 13,4 1,7 14 7 36 19 NW 1030,9 - 0,0
18.02.2020 12:00:00 12,6 2,2 12 7 36 20 NW 1031,9 - 0,0
18.02.2020 11:00:00 11,6 2,3 15 8 38 20 NW 1032,4 - 0,0
18.02.2020 10:00:00 10,8 2,4 9 5 - - NNW 1032,5 - 0,0
18.02.2020 09:00:00 9,0 2,5 8 5 - - WNW 1032,1 - 0,0
18.02.2020 08:00:00 7,6 2,9 10 6 29 16 WNW 1031,8 - 0,0
18.02.2020 07:00:00 8,2 3,2 13 7 29 15 NW 1031,6 20 0,0
18.02.2020 06:00:00 8,6 3,4 16 9 33 18 WNW 1031,4 - 0,0
18.02.2020 05:00:00 9,1 3,1 17 9 36 20 NW 1031,2 - 0,0
18.02.2020 04:00:00 9,4 3,8 12 6 35 19 NW 1031,3 20 0,0
18.02.2020 03:00:00 9,9 4,9 15 8 34 18 NW 1031,4 - -
18.02.2020 02:00:00 10,5 4,4 14 8 34 18 NNW 1031,2 - 0,0
18.02.2020 01:00:00 10,5 5,0 14 8 25 13 NNW 1031,0 - 0,0
18.02.2020 00:00:00 - - - - - - - - - -
17.02.2020 23:00:00 11,1 6,2 9 5 33 18 NW 1030,3 - 0,0
17.02.2020 22:00:00 10,7 6,3 6 4 19 11 NW 1029,4 - 0,0
17.02.2020 21:00:00 11,0 6,1 8 4 24 13 NW 1029,1 - 0,0
17.02.2020 20:00:00 11,2 5,5 10 6 34 19 NW 1028,6 - 0,0
17.02.2020 19:00:00 11,7 5,8 13 7 34 18 NW 1027,7 10 0,0
17.02.2020 18:00:00 12,0 8,7 14 7 34 19 NW 1026,3 - 0,0
17.02.2020 17:00:00 12,8 11,9 8 4 16 9 NW 1025,3 10 0,4
17.02.2020 16:00:00 12,8 11,9 7 4 11 6 NNE 1024,8 10 0,0
17.02.2020 15:00:00 12,9 12,1 4 2 17 9 E 1024,5 - 0,0
17.02.2020 14:00:00 12,7 12,1 9 5 28 15 ESE 1024,5 - 0,0
17.02.2020 13:00:00 12,8 12,2 12 6 28 15 E 1024,6 10 0,0
17.02.2020 12:00:00 12,9 12,4 16 9 32 17 E 1024,8 - 0,0
17.02.2020 11:00:00 12,6 12,1 12 7 29 15 E 1024,7 - 0,0
17.02.2020 10:00:00 12,3 11,8 15 8 37 20 ESE 1024,5 10 0,0
17.02.2020 09:00:00 12,5 12,2 17 9 37 20 ESE 1023,8 - 0,0
17.02.2020 08:00:00 12,5 12,2 16 8 40 22 E 1023,5 - 0,0
17.02.2020 07:00:00 12,4 11,9 22 12 44 24 E 1023,3 10 0,0
17.02.2020 06:00:00 12,3 11,7 20 11 43 23 E 1023,5 - 0,0
17.02.2020 05:00:00 12,2 11,6 18 10 36 20 E 1024,0 - 0,0
17.02.2020 04:00:00 12,1 11,5 18 10 35 19 E 1024,2 10 0,0
17.02.2020 03:00:00 12,4 11,9 16 9 33 18 E 1024,7 - 0,0
17.02.2020 02:00:00 12,2 11,7 13 7 38 20 E 1025,1 - 0,0
17.02.2020 01:00:00 12,2 11,7 20 11 44 24 E 1025,3 - 0,0
17.02.2020 00:00:00 12,3 12,0 20 11 41 22 ESE 1025,6 - 0,4
16.02.2020 23:00:00 12,3 11,8 19 11 38 20 E 1025,9 - 0,4
16.02.2020 22:00:00 12,5 12,0 20 11 52 28 ESE 1026,0 - 0,2
16.02.2020 21:00:00 12,3 11,5 23 13 48 26 ESE 1026,1 - 0,0
16.02.2020 20:00:00 12,3 11,8 20 11 45 24 E 1025,8 - 0,2
16.02.2020 19:00:00 12,3 11,8 25 13 44 24 ESE 1025,5 10 0,0
16.02.2020 18:00:00 12,5 11,9 19 10 40 21 ESE 1025,3 - 0,2
16.02.2020 17:00:00 12,4 11,8 20 11 48 26 ESE 1025,3 - 0,0
16.02.2020 16:00:00 12,4 11,8 23 13 42 23 ESE 1025,0 5 0,0
16.02.2020 15:00:00 12,6 12,0 20 11 40 22 ESE 1025,1 - 0,0
16.02.2020 14:00:00 12,7 11,8 18 10 40 22 ESE 1025,3 - 0,0
16.02.2020 13:00:00 12,8 11,5 17 9 37 20 E 1025,9 6 0,0
16.02.2020 12:00:00 12,6 11,3 19 10 37 20 ESE 1026,5 - 0,0
16.02.2020 11:00:00 12,2 11,6 14 8 28 15 E 1026,3 - 0,0
16.02.2020 10:00:00 11,2 10,4 9 5 28 15 ENE 1026,3 - 0,0
16.02.2020 09:00:00 11,8 11,2 7 4 25 14 E 1026,4 - 0,0
16.02.2020 08:00:00 10,7 10,4 5 3 22 12 NNE 1026,0 - 0,2
16.02.2020 07:00:00 10,9 10,4 12 7 27 15 NE 1026,0 6 0,2
16.02.2020 06:00:00 10,7 10,4 11 6 22 12 N 1025,8 - 0,0
16.02.2020 05:00:00 10,5 10,2 11 6 28 15 NNE 1025,7 - 0,4
16.02.2020 04:00:00 10,3 9,8 16 9 31 17 NE 1026,1 5 0,4
16.02.2020 03:00:00 10,2 9,6 17 9 28 15 NNE 1026,6 - 0,0
16.02.2020 02:00:00 10,8 10,0 14 8 27 15 NNE 1027,3 - 0,0
16.02.2020 01:00:00 10,6 9,4 13 7 19 10 N 1027,7 - 0,0
16.02.2020 00:00:00 10,6 9,2 11 6 19 10 NNE 1027,2 - 0,0
15.02.2020 23:00:00 10,7 8,8 9 5 16 9 NNE 1027,4 - 0,0
15.02.2020 22:00:00 10,6 9,0 7 4 15 8 NNE 1027,7 - 0,0
15.02.2020 21:00:00 10,9 9,2 3 1 8 5 E 1027,4 - 0,0
15.02.2020 20:00:00 11,0 8,9 4 2 7 4 SSE 1027,1 - 0,0
15.02.2020 19:00:00 11,5 8,7 3 2 12 7 ESE 1026,7 - 0,0
15.02.2020 18:00:00 11,8 8,5 6 3 10 6 ESE 1026,1 - 0,0
15.02.2020 17:00:00 12,4 8,3 4 2 11 6 E 1025,8 - 0,0
15.02.2020 16:00:00 13,5 8,1 6 3 18 10 SE 1025,7 20 0,0
15.02.2020 15:00:00 13,6 7,4 8 5 20 11 E 1026,1 - 0,0
15.02.2020 14:00:00 14,2 7,9 8 5 17 9 E 1026,3 - 0,0
15.02.2020 13:00:00 13,6 7,4 7 4 23 12 E 1027,0 - 0,0
15.02.2020 12:00:00 12,7 5,4 10 5 22 12 ENE 1027,4 - 0,0
15.02.2020 11:00:00 11,3 3,1 16 9 29 16 NE 1027,1 - 0,0
15.02.2020 10:00:00 10,5 2,3 14 7 25 14 NNE 1026,9 - 0,0
15.02.2020 09:00:00 10,0 1,4 13 7 26 14 NNE 1026,6 - 0,0
15.02.2020 08:00:00 9,0 1,4 20 11 27 15 NNE 1025,5 - 0,0
15.02.2020 07:00:00 9,3 1,4 11 6 23 12 N 1025,3 20 0,0
15.02.2020 06:00:00 9,6 1,5 12 7 28 15 N 1025,5 - 0,0
15.02.2020 05:00:00 9,5 1,9 18 10 33 18 N 1025,3 - 0,0
15.02.2020 04:00:00 9,7 1,8 19 11 33 18 N 1025,3 20 0,0
15.02.2020 03:00:00 9,8 1,7 19 10 33 18 N 1025,7 - 0,0
15.02.2020 02:00:00 9,7 2,1 22 12 33 18 N 1025,3 - 0,0
15.02.2020 01:00:00 10,1 1,7 18 10 27 15 N 1024,9 - 0,0
15.02.2020 00:00:00 10,1 2,0 13 7 25 13 N 1025,0 - 0,0
14.02.2020 23:00:00 10,4 2,5 17 9 29 16 NNW 1025,0 - 0,0
14.02.2020 22:00:00 11,0 3,5 19 10 32 17 NNW 1024,6 - 0,0
14.02.2020 21:00:00 11,7 3,7 19 11 29 16 NNW 1024,6 - 0,0
14.02.2020 20:00:00 11,9 3,9 16 9 30 16 NW 1024,2 - 0,0
14.02.2020 19:00:00 13,2 3,3 18 10 38 21 NW 1023,5 - 0,0
14.02.2020 18:00:00 14,1 3,5 15 8 33 18 WNW 1023,4 - 0,0
14.02.2020 17:00:00 14,8 3,6 8 5 33 18 WNW 1023,4 - 0,0
14.02.2020 16:00:00 15,4 3,2 10 5 36 19 WNW 1023,6 15 0,0
14.02.2020 15:00:00 15,0 3,2 22 12 40 22 NNW 1024,1 - 0,0
14.02.2020 14:00:00 15,3 3,4 16 8 42 23 NW 1024,7 - 0,0
14.02.2020 13:00:00 15,0 3,2 18 10 37 20 NNW 1025,0 15 0,0
14.02.2020 12:00:00 14,1 2,6 15 8 46 25 NNW 1026,1 - 0,0
14.02.2020 11:00:00 13,7 2,6 11 6 42 23 NNW 1025,8 - 0,0
14.02.2020 10:00:00 12,8 2,6 15 8 39 21 NW 1025,5 15 0,0
14.02.2020 09:00:00 11,5 3,3 11 6 21 11 NW 1025,3 - 0,0
14.02.2020 08:00:00 10,4 3,7 13 7 29 16 NNW 1024,2 - 0,0
14.02.2020 07:00:00 10,6 3,6 6 4 33 18 N 1023,9 - 0,0
14.02.2020 06:00:00 10,8 3,3 17 9 38 21 NNW 1023,3 - 0,0
14.02.2020 05:00:00 10,8 3,1 11 6 28 15 NW 1023,1 - 0,0
14.02.2020 04:00:00 10,1 3,6 4 2 29 16 SSW 1023,1 15 0,0
14.02.2020 03:00:00 10,8 3,6 11 6 26 14 WNW 1022,6 - 0,0
14.02.2020 02:00:00 11,2 3,5 4 2 51 28 WNW 1023,1 - 0,0
14.02.2020 01:00:00 12,1 3,3 27 15 50 27 NNW 1022,5 - 0,0
14.02.2020 00:00:00 13,5 5,4 11 6 30 16 NNW 1022,2 - 0,0
13.02.2020 23:00:00 12,0 7,9 10 6 33 18 W 1020,7 - 0,0
13.02.2020 22:00:00 10,9 9,3 17 9 30 16 WSW 1020,0 - 0,0

tt = Température de l'air
td = dewpoint
ff = Vitesse du vent
fx = gusts
dd = Direction du vent
ppp = reduced air pressure
vv = visibility
rr = Quantités de précipitations

stations d'obs. à proximité